This is the latest recevied weather packets stored in our database for station/object OK1FET-14. If no packets are shown the sender has not sent any weather packets the latest 1 day(s).
| Time | Temp. | Humidity | Pressure | Rain* | Wind** | Luminosity | Snow |
|---|---|---|---|---|---|---|---|
| 1778037002 | 8.89° C | 100% | 1006.9 hPa | - | 6.71 m/s, 219° | - | - |
| 1778037002 | 8.89° C | 100% | 1006.9 hPa | - | 6.71 m/s, 219° | - | - |
| 1778037002 | 8.89° C | 100% | 1006.9 hPa | - | 6.71 m/s, 219° | - | - |
| 1778037002 | 8.89° C | 100% | 1006.9 hPa | - | 6.71 m/s, 219° | - | - |
| 1778036722 | 8.89° C | 100% | 1007 hPa | - | 4.92 m/s, 222° | - | - |
| 1778036722 | 8.89° C | 100% | 1007 hPa | - | 4.92 m/s, 222° | - | - |
| 1778036722 | 8.89° C | 100% | 1007 hPa | - | 4.92 m/s, 222° | - | - |
| 1778036722 | 8.89° C | 100% | 1007 hPa | - | 4.92 m/s, 222° | - | - |
| 1778036442 | 8.89° C | 100% | 1007.1 hPa | - | 6.71 m/s, 222° | - | - |
| 1778036442 | 8.89° C | 100% | 1007.1 hPa | - | 6.71 m/s, 222° | - | - |
| 1778036442 | 8.89° C | 100% | 1007.1 hPa | - | 6.71 m/s, 222° | - | - |
| 1778036442 | 8.89° C | 100% | 1007.1 hPa | - | 6.71 m/s, 222° | - | - |
| 1778036162 | 8.89° C | 100% | 1007.1 hPa | - | 7.15 m/s, 216° | - | - |
| 1778036162 | 8.89° C | 100% | 1007.1 hPa | - | 7.15 m/s, 216° | - | - |
| 1778036162 | 8.89° C | 100% | 1007.1 hPa | - | 7.15 m/s, 216° | - | - |
| 1778036162 | 8.89° C | 100% | 1007.1 hPa | - | 7.15 m/s, 216° | - | - |
| 1778035882 | 8.89° C | 100% | 1007.1 hPa | - | 7.6 m/s, 215° | - | - |
| 1778035882 | 8.89° C | 100% | 1007.1 hPa | - | 7.6 m/s, 215° | - | - |
| 1778035882 | 8.89° C | 100% | 1007.1 hPa | - | 7.6 m/s, 215° | - | - |
| 1778035602 | 9.44° C | 100% | 1007 hPa | - | 6.71 m/s, 224° | - | - |
| 1778035602 | 9.44° C | 100% | 1007 hPa | - | 6.71 m/s, 224° | - | - |
| 1778035602 | 9.44° C | 100% | 1007 hPa | - | 6.71 m/s, 224° | - | - |
| 1778035602 | 9.44° C | 100% | 1007 hPa | - | 6.71 m/s, 224° | - | - |
| 1778035602 | 9.44° C | 100% | 1007 hPa | - | 6.71 m/s, 224° | - | - |
| 1778035322 | 9.44° C | 100% | 1007.2 hPa | - | 6.71 m/s, 213° | - | - |
* Rain since midnight (hover to see other rain measurements)
** Current wind speed in m/s (hover to see current wind gust speed)